www.pogodaiklimat.ru
Время
(UTC), дата
01 29.11
02 29.11
03 29.11
04 29.11
05 29.11
06 29.11
07 29.11
08 29.11
09 29.11
10 29.11
11 29.11
12 29.11
13 29.11
14 29.11
15 29.11
16 29.11
17 29.11
18 29.11
19 29.11
20 29.11
21 29.11
22 29.11
23 29.11
00 30.11
01 30.11
02 30.11
03 30.11
04 30.11
05 30.11
06 30.11
07 30.11
08 30.11
09 30.11
10 30.11
11 30.11
12 30.11
13 30.11
14 30.11
15 30.11
16 30.11
17 30.11
18 30.11
19 30.11
20 30.11
21 30.11
22 30.11
23 30.11
00 1.12
01 1.12
02 1.12
03 1.12
04 1.12
05 1.12
06 1.12
07 1.12
08 1.12
09 1.12
10 1.12
11 1.12
12 1.12
13 1.12
14 1.12
15 1.12
16 1.12
17 1.12
18 1.12
19 1.12
20 1.12
21 1.12
22 1.12
23 1.12
00 2.12
01 2.12
02 2.12
03 2.12
04 2.12
05 2.12
06 2.12
07 2.12
08 2.12
09 2.12
10 2.12
11 2.12
12 2.12
13 2.12
14 2.12
15 2.12
16 2.12
17 2.12
18 2.12
19 2.12
20 2.12
21 2.12
22 2.12
23 2.12
00 3.12
01 3.12
02 3.12
03 3.12
04 3.12
05 3.12
06 3.12
07 3.12
08 3.12
09 3.12
10 3.12
11 3.12
12 3.12
13 3.12
14 3.12
15 3.12
16 3.12
17 3.12
18 3.12
19 3.12
20 3.12
21 3.12
22 3.12
23 3.12
00 4.12
01 4.12
02 4.12
03 4.12
04 4.12
05 4.12
06 4.12
07 4.12
08 4.12
09 4.12
10 4.12
11 4.12
12 4.12
13 4.12
14 4.12
15 4.12
16 4.12
17 4.12
18 4.12
19 4.12
20 4.12
21 4.12
22 4.12
23 4.12
00 5.12
01 5.12
02 5.12
03 5.12
04 5.12
05 5.12
06 5.12
07 5.12
08 5.12
09 5.12
10 5.12
11 5.12
12 5.12
13 5.12
14 5.12
15 5.12
16 5.12
17 5.12
18 5.12
19 5.12
20 5.12
21 5.12
22 5.12
23 5.12
00 6.12
Ветер
(напр.,м/с)
Видим. Явления Облачность Т
(С)
Тd
(С)
f
(%)
Тe
(С)
Тes
(С)
Комфортность P
(гПа)
Po
(гПа)
Тmin
(С)
Tmax
(С)
R
(мм)
R24
(мм)
S
(см)
С 2 13 км слаб. дождь н/о +6.1 +5.2 94 +4 +4 тепло 1006.6 1003.6
С 2 16 км слаб. дождь н/о +6.1 +5.1 93 +4 +4 тепло 1007.3 1004.3
С 2 22 км в посл. час дождь н/о +5.5 +4.0 90 +3 +3 по сезону 1008.3 1005.3
С 2 24 км н/о +5.2 +3.7 90 +2 +2 тепло 1009.1 1006.0
С 3 25 км н/о +4.8 +3.1 89 +2 +2 тепло 1010.2 1007.1
С 2 24 км н/о +3.8 +2.2 89 +1 +1 по сезону 1011.2 1008.1 +3.8 2 2.0
С 3 23 км н/о +3.4 +1.9 90 -0 -0 по сезону 1012.4 1009.3
С 2 23 км н/о +3.0 +1.6 91 -0 -0 тепло 1013.5 1010.4
С 2 20 км н/о +3.4 +2.0 91 0 0 по сезону 1014.6 1011.5
С 2 25 км н/о +4.6 +2.5 86 +2 +2 тепло 1015.9 1012.8
СВ 2 26 км н/о +6.2 +3.3 82 +4 +4 тепло 1016.8 1013.7
СВ 1 28 км н/о +7.0 +2.9 75 +6 +6 тепло 1017.1 1014.0
С 2 27 км н/о +7.4 +2.4 71 +6 +6 тепло 1017.6 1014.5
СЗ 2 29 км н/о +7.8 +3.0 72 +6 +6 тепло 1018.0 1015.0
СЗ 2 30 км н/о +7.5 +2.6 71 +6 +6 тепло 1018.5 1015.4
С 1 28 км н/о +6.7 +2.6 75 +6 +6 тепло 1019.4 1016.3
С 1 25 км н/о +5.4 +2.7 83 +4 +4 тепло 1020.2 1017.1
С 1 20 км н/о +4.5 +2.7 88 +3 +3 по сезону 1020.8 1017.7 +7.9
С 1 13 км н/о +4.0 +2.7 91 +2 +2 по сезону 1021.3 1018.2
С 1 11 км н/о +3.3 +2.2 92 +2 +2 тепло 1021.6 1018.5
С 2 10 км н/о +3.1 +2.3 94 +1 +1 по сезону 1021.8 1018.6
СВ 2 6000 м дымка н/о +2.3 +1.7 96 -1 -1 по сезону 1022.0 1018.8
СВ 2 8000 м дымка н/о +1.7 +1.2 96 -2 -2 по сезону 1022.3 1019.1
СВ 2 6000 м дымка н/о +1.2 +0.8 97 -2 -2 холодно 1022.8 1019.6
СВ 1 6000 м дымка н/о +0.5 +0.1 97 -2 -2 по сезону 1022.5 1019.3
С 2 5000 м дымка н/о +0.1 -0.2 98 -3 -3 по сезону 1022.6 1019.4
СВ 2 5000 м дымка н/о +0.1 0.0 99 -4 -4 холодно 1022.5 1019.3
СВ 2 4400 м дымка н/о +0.6 +0.5 99 -3 -3 по сезону 1022.1 1018.9
С 1 3100 м дымка н/о -0.1 -0.4 98 -2 -2 по сезону 1022.2 1019.0
СВ 2 3300 м в посл. час туман н/о +0.1 0.0 99 -3 -3 холодно 1021.9 1018.7 -0.8
СВ 2 2100 м в посл. час туман н/о +0.9 +0.9 100 -3 -3 по сезону 1021.9 1018.7
СВ 2 300 м туман н/о +1.8 +1.8 100 -2 -2 по сезону 1022.0 1018.8
СВ 3 600 м туман н/о +2.3 +2.3 100 -2 -2 холодно 1022.3 1019.1 70.9
СВ 3 5000 м в посл. час туман н/о +3.2 +3.2 100 -1 -1 по сезону 1022.1 1018.9
В 4 9000 м дым н/о +5.5 +4.4 93 +2 +2 тепло 1022.0 1018.9
В 4 13 км н/о +5.7 +3.5 86 +2 +2 прохладно 1021.5 1018.4 0.2
В 4 19 км н/о +6.6 +3.4 80 +3 +3 по сезону 1021.2 1018.1
В 3 19 км н/о +6.9 +3.4 78 +4 +4 тепло 1020.9 1017.8
В 2 18 км н/о +5.6 +3.2 85 +4 +4 по сезону 1020.6 1017.5
В 3 30 км н/о +4.9 +2.4 84 +1 +1 по сезону 1020.6 1017.4
СВ 3 26 км н/о +5.2 +2.9 85 +2 +2 по сезону 1020.5 1017.3
СВ 2 25 км н/о +5.1 +2.9 86 +2 +2 прохладно 1020.7 1017.6 +7.1 0.2
СВ 3 23 км н/о +5.0 +2.9 86 +1 +1 по сезону 1020.6 1017.5
СВ 3 20 км н/о +4.5 +2.6 87 +1 +1 по сезону 1020.5 1017.4
СВ 3 18 км н/о +4.2 +2.6 89 +1 +1 прохладно 1020.5 1017.4
СВ 3 21 км н/о +3.7 +2.2 90 0 0 по сезону 1020.8 1017.6
СВ 3 21 км н/о +3.8 +2.0 88 -0 -0 по сезону 1021.1 1018.0
С 3 22 км н/о +2.8 +1.5 91 -1 -1 прохладно 1021.4 1018.2
СВ 3 21 км н/о +2.6 +1.7 94 -1 -1 по сезону 1021.0 1017.9
С 2 23 км н/о +2.4 +1.5 94 -1 -1 по сезону 1020.7 1017.5
С 3 20 км н/о +2.1 +1.5 96 -2 -2 прохладно 1020.4 1017.3
С 3 23 км н/о +2.5 +1.7 94 -1 -1 по сезону 1020.0 1016.8
С 3 21 км н/о +2.7 +1.9 94 -1 -1 по сезону 1019.9 1016.8
С 3 18 км н/о +3.1 +2.1 93 -1 -1 прохладно 1019.9 1016.8 +2.0 0.2
С 2 16 км н/о +3.2 +2.2 93 0 0 по сезону 1021.1 1017.9
СВ 4 30 км н/о +3.9 +2.2 89 -0 -0 тепло 1021.2 1018.1
С 3 40 км н/о +4.2 +2.1 86 0 0 прохладно 1022.4 1019.2
С 4 45 км н/о +4.4 +2.2 86 0 0 по сезону 1022.8 1019.7
С 4 40 км н/о +4.9 +2.5 84 +1 +1 по сезону 1023.5 1020.3
С 5 45 км н/о +7.2 +2.9 74 +4 +4 по сезону 1023.2 1020.1
СВ 5 45 км н/о +6.7 +3.0 77 +3 +3 по сезону 1023.5 1020.4
С 4 45 км н/о +6.8 +3.3 78 +3 +3 по сезону 1023.3 1020.2
С 4 45 км н/о +6.8 +3.2 78 +3 +3 по сезону 1023.8 1020.7
С 4 15 км слаб. ливневой дождь н/о +6.5 +3.7 82 +3 +3 по сезону 1024.9 1021.8
С 4 40 км слаб. ливневой дождь н/о +6.1 +3.4 83 +2 +2 по сезону 1025.9 1022.7
С 3 30 км в посл. час дождь н/о +5.0 +2.6 84 +1 +1 прохладно 1026.5 1023.4 +7.5 0.0
С 3 26 км н/о +4.2 +2.1 86 +1 +1 по сезону 1026.8 1023.6
С 3 25 км н/о +3.6 +1.6 87 0 0 по сезону 1027.6 1024.4
С 3 19 км н/о +3.2 +1.4 88 -1 -1 прохладно 1028.2 1025.0
СЗ 2 16 км н/о +2.7 +1.0 89 -1 -1 по сезону 1028.9 1025.7
З 1 14 км н/о +1.6 +0.1 90 -0 -0 по сезону 1028.9 1025.7
СЗ 2 18 км н/о +1.1 -0.3 90 -2 -2 холодно 1029.6 1026.4
СЗ 1 18 км н/о +0.2 -1.5 88 -2 -2 по сезону 1029.5 1026.3
СЗ 2 17 км н/о -0.1 -1.3 92 -4 -4 по сезону 1029.9 1026.7
СЗ 2 16 км н/о +0.2 -1.3 90 -4 -4 холодно 1029.9 1026.6
С 3 15 км н/о +0.9 -0.9 88 -3 -3 по сезону 1029.8 1026.6
СЗ 2 10 км н/о 0.0 -1.4 90 -3 -3 по сезону 1030.4 1027.2
СЗ 3 10 км дым н/о -0.3 -1.4 92 -5 -5 очень
холодно
1030.6 1027.4 -0.4
СЗ 2 13 км н/о +0.2 -1.3 90 -3 -3 по сезону 1031.1 1027.9
З 1 13 км н/о -0.3 -1.8 90 -2 -2 по сезону 1031.5 1028.3
З 3 13 км н/о +0.4 -1.0 90 -4 -4 очень
холодно
1031.9 1028.7
З 2 14 км н/о +2.1 -0.8 81 -1 -1 по сезону 1032.1 1028.9
З 3 15 км н/о +3.4 -0.4 76 0 0 по сезону 1032.1 1028.9
З 2 16 км н/о +4.7 +0.5 74 +2 +2 прохладно 1032.0 1028.8 0.2
З 3 19 км н/о +6.6 +1.5 70 +4 +4 по сезону 1031.5 1028.4
СЗ 3 30 км н/о +7.4 +1.5 66 +5 +5 тепло 1031.4 1028.3
СЗ 2 28 км н/о +7.0 +2.0 70 +5 +5 по сезону 1031.2 1028.1
СЗ 2 27 км н/о +5.7 +2.0 77 +4 +4 по сезону 1031.4 1028.3
СЗ 2 23 км н/о +4.5 +1.6 81 +2 +2 по сезону 1031.4 1028.3
З 3 19 км н/о +2.6 +0.8 88 -2 -2 холодно 1031.5 1028.3 +7.6 0.2
З 3 21 км н/о +3.3 +1.4 87 -0 -0 по сезону 1031.4 1028.2
З 2 19 км н/о +2.4 +0.4 87 -0 -0 по сезону 1031.6 1028.5
З 1 18 км н/о +2.4 +0.9 90 +2 +2 по сезону 1031.6 1028.4
З 1 18 км н/о +2.6 +1.0 89 +1 +1 по сезону 1031.7 1028.5
З 2 20 км н/о +2.8 +1.3 90 -0 -0 по сезону 1031.7 1028.5
З 2 20 км н/о +3.0 +1.1 87 +1 +1 по сезону 1031.7 1028.6
Ю 2 15 км н/о +1.6 +0.4 92 -1 -1 по сезону 1031.2 1028.0
штиль 0 16 км н/о +2.2 +1.2 93 +1 +1 тепло 1030.7 1027.5
СЗ 2 18 км н/о +2.0 +1.1 94 -1 -1 прохладно 1030.4 1027.2
З 1 19 км н/о +1.9 +0.9 93 0 0 по сезону 1030.0 1026.8
З 2 19 км н/о +1.8 +1.0 94 -1 -1 по сезону 1029.5 1026.3
Ю 1 15 км н/о +1.3 +0.4 94 -1 -1 прохладно 1029.0 1025.8 +1.3 0.2
Ю 2 17 км н/о +2.7 +1.9 94 -1 -1 по сезону 1029.6 1026.4
ЮЗ 3 28 км н/о +3.8 +1.7 86 0 0 тепло 1029.5 1026.4
ЮЗ 3 26 км н/о +4.5 +2.3 86 +1 +1 прохладно 1029.3 1026.1
ЮЗ 2 21 км н/о +5.4 +2.7 83 +3 +3 по сезону 1029.2 1026.0
ЮЗ 3 21 км н/о +7.0 +3.4 78 +4 +4 тепло 1028.6 1025.4
З 3 28 км н/о +7.9 +3.4 73 +6 +6 по сезону 1027.7 1024.6
З 4 35 км н/о +9.3 +2.8 64 +7 +7 тепло 1026.8 1023.7
ЮЗ 4 40 км н/о +9.6 +3.1 64 +7 +7 тепло 1025.9 1022.8
ЮЗ 5 45 км н/о +8.8 +1.9 62 +6 +6 по сезону 1025.6 1022.5
ЮЗ 3 40 км н/о +7.7 +2.0 67 +5 +5 по сезону 1025.5 1022.4
ЮЗ 3 40 км н/о +7.1 +2.5 73 +4 +4 тепло 1025.5 1022.4
ЮЗ 3 30 км н/о +6.9 +2.7 75 +4 +4 по сезону 1025.2 1022.1 +10.0
ЮЗ 3 27 км н/о +6.8 +3.5 79 +4 +4 по сезону 1025.2 1022.1
Ю 3 22 км н/о +5.9 +3.3 83 +3 +3 тепло 1025.0 1021.9
Ю 3 19 км н/о +5.0 +3.2 88 +1 +1 прохладно 1024.5 1021.3
Ю 3 18 км н/о +4.6 +3.2 91 +1 +1 по сезону 1024.2 1021.1
Ю 3 14 км н/о +3.9 +2.8 93 0 0 по сезону 1024.0 1020.8
Ю 2 8000 м дым н/о +2.6 +1.7 94 -0 -0 прохладно 1023.6 1020.5
ЮВ 2 2200 м дымка н/о +1.4 +0.8 96 -2 -2 по сезону 1023.1 1019.9
штиль 0 9000 м дымка н/о +2.7 +2.5 99 +1 +1 тепло 1022.9 1019.7
штиль 0 7000 м дымка н/о +3.1 +2.9 99 +2 +2 по сезону 1022.5 1019.3
В 2 6000 м дымка н/о +2.5 +2.1 97 -0 -0 по сезону 1021.6 1018.4
штиль 0 7000 м дымка н/о +2.2 +1.9 98 +1 +1 тепло 1021.1 1018.0
В 1 4400 м дымка н/о +0.4 -0.3 95 -0 -0 прохладно 1021.0 1017.8 +0.4
штиль 0 8000 м дымка н/о +2.0 +1.8 99 +1 +1 по сезону 1021.0 1017.8
С 1 7000 м дымка н/о +0.7 +0.2 96 0 0 тепло 1021.2 1018.0
С 1 7000 м дымка н/о +1.8 +1.4 97 +1 +1 прохладно 1021.2 1018.0
ЮВ 2 13 км н/о +5.4 +3.7 89 +3 +3 по сезону 1021.3 1018.1
З 1 13 км н/о +6.3 +3.3 81 +6 +6 тепло 1021.1 1018.0
ЮВ 2 24 км н/о +8.4 +3.8 73 +7 +7 по сезону 1020.4 1017.4
ЮВ 3 21 км н/о +8.6 +3.6 71 +7 +7 тепло 1020.1 1017.0
0 25 км н/о +9.0 +3.3 67 1019.6 1016.5
ЮЗ 2 25 км н/о +7.9 +3.0 71 +6 +6 по сезону 1019.5 1016.4
Ю 2 23 км н/о +6.4 +2.5 76 +4 +4 по сезону 1019.4 1016.3
З 1 17 км н/о +5.3 +2.9 84 +4 +4 тепло 1020.1 1017.0
З 2 13 км н/о +3.9 +2.3 89 +2 +2 по сезону 1020.3 1017.2 +9.0
З 1 8000 м дым н/о +2.8 +1.7 92 +1 +1 по сезону 1020.7 1017.6
З 1 7000 м дымка н/о +2.9 +2.3 96 +1 +1 по сезону 1020.9 1017.7
З 1 4800 м дымка н/о +2.1 +1.5 96 +2 +2 по сезону 1020.7 1017.6
З 1 <100 м туман н/о +1.1 +0.7 97 -1 -1 по сезону 1020.9 1017.8
З 3 100 м туман н/о +0.3 +0.2 99 -4 -4 по сезону 1021.6 1018.4
ЮЗ 2 100 м туман н/о -0.2 -0.3 99 -3 -3 холодно 1021.5 1018.4
З 2 100 м туман н/о -0.7 -0.8 99 -4 -4 прохладно 1021.5 1018.3
ЮЗ 1 100 м туман н/о -0.9 -0.9 100 -3 -3 по сезону 1021.3 1018.1
ЮВ 1 100 м туман н/о -0.9 -0.9 100 -2 -2 прохладно 1021.3 1018.1 78.0
Ю 2 500 м туман н/о -0.9 -0.9 100 -4 -4 прохладно 1021.5 1018.3
З 1 2300 м в посл. час туман н/о -0.2 -0.2 100 -1 -1 по сезону 1021.1 1017.9
СЗ 1 5000 м дымка н/о +0.3 +0.3 100 -1 -1 прохладно 1021.4 1018.2 -1.3
СЗ 1 5000 м дымка н/о +0.3 +0.3 100 -2 -2 по сезону 1021.5 1018.3
ЮЗ 2 5000 м дымка н/о +1.5 +1.5 100 -2 -2 по сезону 1021.6 1018.5
ЮЗ 3 6000 м дымка н/о +2.9 +2.7 99 -1 -1 прохладно 1021.5 1018.3
ЮЗ 4 9000 м дымка н/о +3.9 +3.1 95 -1 -1 по сезону 1021.2 1018.1
ЮЗ 3 7000 м дым н/о +4.2 +3.0 92 0 0 по сезону 1021.1 1018.0
ЮЗ 4 9000 м дым н/о +6.0 +4.6 91 +2 +2 прохладно 1020.3 1017.2 0.2
ЮЗ 5 12 км н/о +6.5 +5.0 90 +2 +2 по сезону 1019.4 1016.3
Ю 3 15 км н/о +7.5 +5.6 88 +5 +5 тепло 1018.5 1015.4
ЮЗ 5 30 км н/о +8.4 +5.8 84 +5 +5 по сезону 1017.5 1014.5
Ю 6 26 км н/о +8.3 +6.0 85 +4 +4 по сезону 1016.6 1013.6
ЮЗ 7 29 км н/о +8.9 +6.4 84 +5 +5 тепло 1016.2 1013.1
ЮЗ 7 30 км в посл. час дождь н/о +9.3 +6.4 82 +5 +5 по сезону 1015.5 1012.5 +9.4 0.2
ЮЗ 7 30 км н/о +9.5 +6.4 81 +6 +6 тепло 1015.0 1011.9
ЮЗ 7 30 км н/о +9.7 +6.4 80 +6 +6 тепло 1014.7 1011.7
ЮЗ 8
{13}
28 км н/о +9.9 +6.5 79 +6 +6 по сезону 1014.3 1011.2
ЮЗ 8
{13}
27 км н/о +10.0 +7.1 82 +6 +6 тепло 1013.5 1010.4
ЮЗ 8 25 км н/о +10.0 +7.7 86 +6 +6 тепло 1012.6 1009.6
ЮЗ 7 20 км слаб. ливневой дождь н/о +10.1 +8.6 90 +6 +6 тепло 1011.8 1008.8 0.0
Местоположение метеостанции Лондон (Великобритания): широта 51.48 долгота -0.45 высота над уровнем моря 25 м.
В архиве по умолчанию представлена погода в Лондоне за последнюю неделю. Архивные данные за месяц целиком и за предыдущие месяцы, начиная с января 2011 года, Вы можете получить, выбрав интересующий диапазон дат из раскрывающегося списка и нажав кнопку "Найти!".
*Определитесь, кто Вы:
Внимание! Время в таблицах - всемирное. Для получения местного времени необходимо прибавить поправку, которая равна 0 ч.
Смотрите также архив погоды в соседних городах и на ближайших метеорологических станциях:
Партнеры нашего сайта:      
Пояснения к столбцам:
  • Ветер - указаны скорость ветра в м/с - средняя за 10 мин, порывы в срок и между сроками (в фигурных скобках) и направление, откуда дует ветер: С - северный,
  • СВ - северо-восточный, В - восточный, ЮВ - юго-восточный, Ю - южный, ЮЗ - юго-западный, З - западный, СЗ - северо-западный.
  • Видимость - горизонтальная дальность видимости в метрах или километрах. При видимости от 1 до 10 км при отсутствии осадков обычно наблюдается дымка, при ухудшении видимости до 1 км и менее - туман. В сухую погоду видимость может ухудшаться дымом, пылью или мглою.
  • Явления - указаны атмосферные явления, наблюдавшиеся в срок или в последний час перед сроком; фигурными скобками обозначены явления, наблюдавшиеся между сроками (за 1-3 часа до срока); квадратными скобками обозначены град или гололедные отложения с указанием их диаметра в мм.
  • Облачность - указаны через наклонную черту общая и нижняя облачность в баллах и высота нижней границы облаков в метрах; квадратными скобками обозначены формы облаков: Ci - перистые, Cs - перисто-слоистые, Cc - перисто-кучевые, Ac - высококучевые, As - высокослоистые, Sc - слоисто-кучевые, Ns - слоисто-дождевые, Cu - кучевые, Cb - кучево-дождевые. Подробнее классификацию облаков см. в Атласе облаков (PDF).
  • T - Температура воздуха - температура, измеренная на высоте 2 м над землей.
  • Td - Температура точки росы - температура, при понижении до которой содержащийся в воздухе водяной пар достигнет насыщения.
  • f - Относительная влажность воздуха - влажноcть воздуха, измеренная на высоте 2 м над землей.
  • Te - Эффективная температура - температура, которую ощущает одетый по сезону человек в тени. Характеристика душности погоды. При расчете учитывается влияние влажности воздуха и скорости ветра на теплоощущения человека.
  • Tes - Эффективная температура на солнце - температура, которую ощущает человек, с поправкой на солнечный нагрев. Характеристика знойности погоды. Зависит от высоты солнца над горизонтом, облачности и скорости ветра. Ночью, в пасмурную погоду, а также при ветре 12 м/с и более поправка равна нулю.
  • P - Атмосферное давление - приведенное к уровню моря атмосферное давление.
  • Po - Атмосферное давление - измеренное на уровне метеостанции атмосферное давление.
  • Tmin - Минимальная температура - минимум температуры воздуха на высоте 2 м над землей.
  • Tmax - Максимальная температура - максимум температуры воздуха на высоте 2 м над землей.
  • R - Количество осадков - Количество выпавших осадков за период времени, мм. При наведении курсора мыши на число - период времени, за который выпало указанное количество осадков.
  • R24 - Количество осадков - Количество выпавших осадков за 24 часа, мм.
  • S - Снежный покров - Высота снежного покрова, см. При наведении курсора мыши на число - состояние снежного покрова и степень покрытия местности в баллах.